Stündliche Wetter Holnevichi

Heute, 21 Juni, Montag

Zeit Temperatur Niederschläge Wind Luftdruck Luftfeuchtigkeit
00:00 +20°C° 0 mm 2 m/S 748 mmHg 90%
01:00 +19°C° 0 mm 2 m/S 748 mmHg 90%
02:00 +19°C° 0 mm 2 m/S 748 mmHg 91%
03:00 +19°C° 0 mm 2 m/S 748 mmHg 90%
04:00 +20°C° 0 mm 2 m/S 748 mmHg 88%
05:00 +20°C° 0 mm 2 m/S 748 mmHg 87%
06:00 +21°C° 0 mm 2 m/S 748 mmHg 81%
07:00 +24°C° 0 mm 3 m/S 748 mmHg 75%
08:00 +25°C° 0 mm 4 m/S 748 mmHg 69%
09:00 +26°C° 0 mm 4 m/S 748 mmHg 65%
10:00 +27°C° 0 mm 4 m/S 748 mmHg 62%
11:00 +28°C° 0 mm 4 m/S 748 mmHg 58%
12:00 +28°C° 0 mm 4 m/S 748 mmHg 61%
13:00 +27°C° 0 mm 4 m/S 748 mmHg 64%
14:00 +27°C° 0 mm 4 m/S 747 mmHg 66%
15:00 +27°C° 0 mm 4 m/S 747 mmHg 66%
16:00 +28°C° 0 mm 4 m/S 747 mmHg 67%
17:00 +28°C° 0 mm 5 m/S 747 mmHg 67%
18:00 +27°C° 0 mm 4 m/S 747 mmHg 72%
19:00 +26°C° 0 mm 4 m/S 746 mmHg 77%
20:00 +25°C° 0 mm 4 m/S 746 mmHg 82%
21:00 +25°C° 0 mm 4 m/S 746 mmHg 84%
22:00 +23°C° 0 mm 4 m/S 746 mmHg 86%
23:00 +22°C° 0 mm 4 m/S 746 mmHg 88%

Morgen, 22 Juni, Dienstag

Zeit Temperatur Niederschläge Wind Luftdruck Luftfeuchtigkeit
00:00 +22°C° 0 mm 4 m/S 746 mmHg 90%
01:00 +21°C° 0 mm 3 m/S 746 mmHg 92%
02:00 +20°C° 0 mm 3 m/S 746 mmHg 94%
03:00 +20°C° 0 mm 3 m/S 746 mmHg 94%
04:00 +20°C° 0 mm 3 m/S 746 mmHg 93%
05:00 +21°C° 0 mm 3 m/S 746 mmHg 93%
06:00 +22°C° 0 mm 4 m/S 747 mmHg 87%
07:00 +23°C° 0 mm 4 m/S 747 mmHg 81%
08:00 +26°C° 0 mm 5 m/S 747 mmHg 74%
09:00 +27°C° 0 mm 5 m/S 747 mmHg 69%
10:00 +28°C° 0 mm 5 m/S 747 mmHg 64%
11:00 +29°C° 0 mm 5 m/S 747 mmHg 59%
12:00 +30°C° 0 mm 5 m/S 747 mmHg 57%
13:00 +32°C° 0 mm 5 m/S 747 mmHg 55%
14:00 +32°C° 0 mm 5 m/S 747 mmHg 52%
15:00 +32°C° 0 mm 5 m/S 747 mmHg 54%
16:00 +32°C° 0 mm 5 m/S 747 mmHg 56%
17:00 +30°C° 0 mm 4 m/S 747 mmHg 58%
18:00 +29°C° 0 mm 4 m/S 747 mmHg 65%
19:00 +27°C° 0 mm 3 m/S 747 mmHg 72%
20:00 +25°C° 0 mm 3 m/S 747 mmHg 79%
21:00 +24°C° 0 mm 3 m/S 747 mmHg 82%
22:00 +22°C° 0 mm 3 m/S 747 mmHg 84%
23:00 +21°C° 0 mm 3 m/S 747 mmHg 86%

übermorgen, 23 Juni, Mittwoch

Zeit Temperatur Niederschläge Wind Luftdruck Luftfeuchtigkeit
00:00 +21°C° 0 mm 3 m/S 748 mmHg 87%
01:00 +20°C° 0 mm 3 m/S 748 mmHg 88%
02:00 +19°C° 0 mm 3 m/S 748 mmHg 89%
03:00 +19°C° 0 mm 3 m/S 748 mmHg 89%
04:00 +19°C° 0 mm 2 m/S 748 mmHg 89%
05:00 +19°C° 0 mm 2 m/S 748 mmHg 89%
06:00 +21°C° 0 mm 3 m/S 748 mmHg 83%
07:00 +24°C° 0 mm 3 m/S 748 mmHg 78%
08:00 +26°C° 0 mm 4 m/S 748 mmHg 72%
09:00 +27°C° 0 mm 4 m/S 748 mmHg 67%
10:00 +29°C° 0 mm 4 m/S 749 mmHg 62%
11:00 +30°C° 0 mm 4 m/S 749 mmHg 57%
12:00 +32°C° 0 mm 4 m/S 749 mmHg 54%
13:00 +33°C° 0 mm 4 m/S 748 mmHg 51%
14:00 +33°C° 0 mm 4 m/S 748 mmHg 48%
15:00 +33°C° 0 mm 4 m/S 748 mmHg 51%
16:00 +33°C° 0 mm 3 m/S 748 mmHg 54%
17:00 +33°C° 0 mm 3 m/S 748 mmHg 57%
18:00 +30°C° 0 mm 3 m/S 748 mmHg 64%
19:00 +29°C° 0 mm 2 m/S 748 mmHg 71%
20:00 +27°C° 0 mm 2 m/S 748 mmHg 79%
21:00 +26°C° 0 mm 2 m/S 748 mmHg 80%
22:00 +25°C° 0 mm 2 m/S 748 mmHg 82%
23:00 +24°C° 0 mm 2 m/S 748 mmHg 84%

24 Juni, Donnerstag

Zeit Temperatur Niederschläge Wind Luftdruck Luftfeuchtigkeit
00:00 +23°C° 0 mm 2 m/S 749 mmHg 85%
01:00 +23°C° 0 mm 2 m/S 749 mmHg 86%
02:00 +21°C° 0 mm 2 m/S 749 mmHg 88%
03:00 +21°C° 0 mm 2 m/S 749 mmHg 88%
04:00 +23°C° 0 mm 2 m/S 749 mmHg 88%
05:00 +23°C° 0 mm 2 m/S 749 mmHg 89%
06:00 +24°C° 0 mm 2 m/S 749 mmHg 84%
07:00 +26°C° 0 mm 3 m/S 749 mmHg 78%
08:00 +28°C° 0 mm 3 m/S 749 mmHg 73%
09:00 +29°C° 0 mm 3 m/S 749 mmHg 68%
10:00 +30°C° 0 mm 3 m/S 749 mmHg 63%
11:00 +31°C° 0 mm 3 m/S 748 mmHg 58%
12:00 +33°C° 0 mm 4 m/S 748 mmHg 55%
13:00 +33°C° 0 mm 4 m/S 748 mmHg 53%
14:00 +34°C° 0 mm 4 m/S 748 mmHg 51%
15:00 +34°C° 0 mm 4 m/S 748 mmHg 53%
16:00 +33°C° 0 mm 3 m/S 747 mmHg 56%
17:00 +33°C° 0 mm 3 m/S 747 mmHg 59%
18:00 +30°C° 0.1 mm 3 m/S 747 mmHg 65%
19:00 +29°C° 0.1 mm 3 m/S 746 mmHg 71%
20:00 +27°C° 0.1 mm 2 m/S 746 mmHg 78%
21:00 +26°C° 0.2 mm 2 m/S 746 mmHg 81%
22:00 +25°C° 0.2 mm 2 m/S 746 mmHg 83%
23:00 +24°C° 0.2 mm 2 m/S 746 mmHg 86%

25 Juni, Freitag

Zeit Temperatur Niederschläge Wind Luftdruck Luftfeuchtigkeit
00:00 +23°C° 0.3 mm 2 m/S 746 mmHg 88%
01:00 +23°C° 0.3 mm 2 m/S 746 mmHg 89%
02:00 +22°C° 0.3 mm 1 m/S 746 mmHg 91%
03:00 +21°C° 0 mm 2 m/S 746 mmHg 91%
04:00 +21°C° 0 mm 2 m/S 746 mmHg 91%
05:00 +21°C° 0 mm 2 m/S 746 mmHg 91%
06:00 +23°C° 0 mm 2 m/S 746 mmHg 85%
07:00 +24°C° 0 mm 3 m/S 746 mmHg 79%
08:00 +26°C° 0 mm 3 m/S 746 mmHg 73%
09:00 +27°C° 0 mm 3 m/S 746 mmHg 69%
10:00 +29°C° 0 mm 3 m/S 746 mmHg 64%
11:00 +30°C° 0 mm 3 m/S 746 mmHg 59%
12:00 +31°C° 0.3 mm 3 m/S 746 mmHg 57%
13:00 +31°C° 0.3 mm 3 m/S 746 mmHg 55%
14:00 +33°C° 0.3 mm 3 m/S 746 mmHg 53%
15:00 +33°C° 0.5 mm 3 m/S 745 mmHg 56%
16:00 +31°C° 0.5 mm 3 m/S 745 mmHg 59%
17:00 +30°C° 0.5 mm 3 m/S 744 mmHg 63%
18:00 +27°C° 4.3 mm 4 m/S 745 mmHg 73%
19:00 +25°C° 4.3 mm 5 m/S 745 mmHg 84%
20:00 +21°C° 4.3 mm 6 m/S 746 mmHg 95%
21:00 +20°C° 1 mm 4 m/S 745 mmHg 93%
22:00 +20°C° 1 mm 3 m/S 744 mmHg 90%
23:00 +20°C° 1 mm 2 m/S 744 mmHg 88%

26 Juni, Samstag

Zeit Temperatur Niederschläge Wind Luftdruck Luftfeuchtigkeit
00:00 +20°C° 0.6 mm 2 m/S 744 mmHg 90%
01:00 +19°C° 0.6 mm 2 m/S 744 mmHg 92%
02:00 +19°C° 0.6 mm 2 m/S 744 mmHg 93%
03:00 +19°C° 0.2 mm 2 m/S 745 mmHg 94%
04:00 +20°C° 0.2 mm 1 m/S 745 mmHg 94%
05:00 +21°C° 0.2 mm 1 m/S 745 mmHg 94%
06:00 +22°C° 0 mm 1 m/S 745 mmHg 90%
07:00 +23°C° 0 mm 1 m/S 745 mmHg 85%
08:00 +25°C° 0 mm 1 m/S 745 mmHg 80%
09:00 +26°C° 0 mm 1 m/S 745 mmHg 75%
10:00 +28°C° 0 mm 1 m/S 745 mmHg 69%
11:00 +29°C° 0 mm 2 m/S 746 mmHg 63%
12:00 +30°C° 0 mm 2 m/S 745 mmHg 61%
13:00 +30°C° 0 mm 1 m/S 745 mmHg 59%
14:00 +31°C° 0 mm 1 m/S 745 mmHg 56%
15:00 +30°C° 0.4 mm 1 m/S 745 mmHg 60%
16:00 +30°C° 0.4 mm 2 m/S 745 mmHg 64%
17:00 +29°C° 0.4 mm 2 m/S 745 mmHg 68%
18:00 +27°C° 0.4 mm 2 m/S 745 mmHg 74%
19:00 +26°C° 0.4 mm 2 m/S 745 mmHg 81%
20:00 +24°C° 0.4 mm 2 m/S 745 mmHg 87%
21:00 +23°C° 0.4 mm 2 m/S 745 mmHg 89%
22:00 +21°C° 0.4 mm 2 m/S 746 mmHg 91%
23:00 +20°C° 0.4 mm 2 m/S 746 mmHg 93%
Mehr zeigen

Wir brauchen deine Erlaubnis

Meteoprog und unser Service Anbieter werden persönliche Daten aufbewahren, so wie Cookies, Geräte Bezeichnung oder ähnliche Technologien von deinem Gerät und Prozess, so wie Persönliche Daten Inhalte und Werbungen, genauso wie social Media und den Verkehr zu analysieren.

  • Aufbewahrung und/oder Zugang zu deiner Geräte Informationen.

    Cookies, Geräte Bezeichnung oder andere Informationen, können aufbewahrt oder Zugang zu deinem Gerät erhalten, für den Grund, der oben angegeben wird.

  • Personalisierte Werbung und Inhalte, Messungen, Einblick in das Publikum und Produkt Entwicklung.

    Werbungen und Inhalte können personalisiert werden, basierend auf ein Profil. Mehr Daten können besser personalisierte Werbungen und Inhalte hinzufügen. Werbung und Inhalte können gezeigt und gemessen werden. Einblicke über das Publikum, welche die Werbung gesehen haben und den Inhalt, können abgeleitet werden. So wie Daten können genutzt werden, um es zu verbessern oder die Benutzer Erfahrung zu verbessern das System und die Software.

Wenn du “Ich stimme zu” klickst, erlaubst du uns, die Cookies zu benutzen die Geräte Bezeichnung, den Web oder ähnliche Technologien zu benutzen. Deine Settings, können in deinem Gerät bei deinem Browser geändert werden.

Für den bestimmten Zweck, berechtigten Interessen beruhen darauf, mehr als auf den Inhalt. Du kannst mehr darüber in unseren Privaten und Cookie Politik lesen.